[[{"header":{"parameterUnit":"m.s-1","parameterCategory":1,"la1":30.2991,"la2":30.254,"lo1":-89.0895,"lo2":-89.0444,"dy":0.0017,"dx":0.0017,"nx":28,"ny":28,"refTime":"2024-02-26T03:00:00:Z","depth":0,"parameterNumber":2,"parameterNumberName":"U-component_of_WINDS"},"data":[0,0,0,0,0,0,0,0,0,0,0,0,0,0,0,0,0,0,0,0,0,0,0,0,0,0,0,0,0,0,0,0,0,0,0,0,0,0,0,0,0,0,0,0,0,0,0,0,0,0,0,0,0,0,0,0,0,0,1.5309,1.5308,0,1.5286,1.5286,1.5286,1.5255,1.5255,1.5254,1.5254,1.5233,1.5233,1.5232,0,0,0,0,0,0,0,0,0,0,0,0,0,1.5328,1.5327,1.5309,1.5308,1.5308,1.5286,1.5286,1.5286,1.5255,1.5255,1.5254,1.5254,1.5233,1.5233,1.5232,0,0,0,0,0,0,0,0,0,0,0,0,0,1.5314,1.5327,1.5309,1.529,1.5288,1.5286,1.5286,1.5286,1.5256,1.5255,1.5254,1.5253,1.5233,1.5233,1.5232,1.5247,0,0,1.5232,1.5232,0,0,0,0,0,0,0,0,1.5315,1.5313,1.5293,1.5292,1.529,1.5273,1.5285,1.5273,1.5256,1.5268,1.5254,1.5253,1.5247,1.5245,1.5243,1.5246,1.5245,1.5232,1.5232,1.5232,1.5232,0,0,0,0,0,0,0,1.5316,1.5314,1.53,1.5293,1.5291,1.5284,1.5281,1.5282,1.5262,1.5267,1.5265,1.5262,1.5246,1.5243,1.5242,1.5245,1.5232,1.5232,1.5232,1.5232,1.5259,1.526,0,0,0,0,0,0,1.5319,1.5315,1.5301,1.5299,1.53,1.5284,1.5281,1.5279,1.5262,1.5259,1.5263,1.5261,1.5244,1.5242,1.5241,1.5257,1.5232,1.5232,1.5232,1.5258,1.5259,1.526,0,0,0,0,0,0,1.5319,1.5318,1.5301,1.5306,1.5304,1.5285,1.5283,1.5279,1.5276,1.5259,1.5255,1.5264,1.5243,1.5242,1.5246,1.5256,1.5232,1.5232,1.5257,1.5259,1.526,1.5289,0,0,0,0,0,0,1.532,1.5318,1.5323,1.5307,1.5304,1.5306,1.5283,1.5279,1.5276,1.5273,1.5259,1.5256,1.5242,1.5246,1.5246,1.5255,1.5232,1.5256,1.5258,1.5259,1.5287,1.5291,1.5295,0,0,0,0,0,1.5321,1.5333,1.5324,1.5322,1.5309,1.5306,1.5305,1.5288,1.5277,1.5282,1.5271,1.5256,1.5255,1.5247,1.5246,1.5256,1.5256,1.5257,1.5259,1.5286,1.5291,1.5295,0,0,0,0,0,0,1.5352,1.533,1.532,1.5327,1.5318,1.5301,1.5307,1.5294,1.5289,1.5287,1.5267,1.5264,1.5271,1.5264,1.5255,1.5269,1.5253,1.5255,1.5274,1.5278,1.5282,1.5283,1.5231,0,0,0,0,0,1.5359,1.5358,1.534,1.5347,1.5344,1.5326,1.5324,1.5312,1.5303,1.53,1.5289,1.5282,1.5279,1.5278,1.5276,1.5286,1.5283,1.5293,1.5297,1.53,1.5302,1.5307,1.5311,1.5266,1.5266,1.5266,0,0,1.5375,1.5363,1.5363,1.5353,1.5345,1.5345,1.5324,1.5324,1.5324,1.53,1.5303,1.5295,1.5286,1.5293,1.5296,1.5288,1.5313,1.5302,1.5305,1.5305,1.5309,1.5313,1.5317,1.5267,1.5267,1.5267,0,0,1.5403,1.5394,1.5399,1.5392,1.538,1.5368,1.537,1.5355,1.5348,1.5351,1.5333,1.5333,1.533,1.5323,1.532,1.5346,1.5333,1.5346,1.5366,1.5371,1.5375,1.5378,1.5387,1.5391,1.5348,1.5348,1.5348,0,1.5423,1.5422,1.5404,1.5405,1.5402,1.538,1.5385,1.5379,1.5368,1.5366,1.5357,1.5352,1.5344,1.535,1.5356,1.5354,1.5356,1.5347,1.5376,1.5378,1.5381,1.539,1.5393,1.535,1.5349,1.5349,1.5349,0,1.5448,1.5448,1.5453,1.5442,1.5439,1.5443,1.5426,1.5425,1.5414,1.5403,1.5407,1.5396,1.5391,1.5392,1.5381,1.5396,1.5391,1.5379,1.5362,1.5387,1.5395,1.5398,1.5352,1.5351,1.5351,1.535,0,0,1.5494,1.5473,1.5476,1.547,1.5456,1.5456,1.5459,1.5453,1.5453,1.5446,1.5448,1.5446,1.5435,1.5431,1.5419,1.5424,1.5446,1.5411,1.5411,1.5418,1.5462,1.5471,1.5476,1.5437,1.5437,1.5438,1.5463,0,1.552,1.5523,1.5507,1.5515,1.5514,1.5494,1.5497,1.5489,1.5479,1.5478,1.5468,1.5466,1.5451,1.5449,1.5453,1.5442,1.5454,1.544,1.5439,1.5439,1.5442,1.548,1.5489,1.5513,1.5466,1.5467,1.5467,0,1.5549,1.5543,1.5551,1.5537,1.5536,1.5539,1.5532,1.5531,1.5522,1.5515,1.5511,1.5497,1.55,1.5484,1.5488,1.5478,1.5477,1.5472,1.5473,1.5472,1.5455,1.548,1.5521,1.5524,1.5472,1.5471,1.5471,0,1.5582,1.5576,1.558,1.5576,1.556,1.5562,1.5555,1.5545,1.5543,1.5538,1.5536,1.5532,1.5529,1.5526,1.5512,1.5502,1.5518,1.5501,1.5512,1.5512,1.5516,1.5516,1.5557,1.5516,1.5516,1.5516,1.5515,0,1.5612,1.5617,1.5594,1.5597,1.5603,1.5585,1.5591,1.5583,1.5574,1.5575,1.5557,1.5558,1.554,1.5539,1.5528,1.5533,1.5532,1.5527,1.5524,1.5528,1.5529,1.5527,1.5525,1.5517,1.5516,1.5516,1.5516,0,1.5649,1.5634,1.5637,1.5621,1.5617,1.5622,1.5609,1.5611,1.56,1.5602,1.5601,1.5585,1.5583,1.5569,1.5564,1.5557,1.5566,1.556,1.5569,1.5567,1.5579,1.5578,1.562,1.5625,1.5581,1.5581,1.5582,0,1.5669,1.5673,1.5657,1.5656,1.565,1.5649,1.5646,1.5629,1.5627,1.5617,1.5621,1.5617,1.5614,1.5613,1.5601,1.5597,1.5591,1.5606,1.559,1.5595,1.5591,1.5591,1.5591,1.5609,1.561,1.561,1.5611,0,1.5705,1.5698,1.5694,1.5689,1.5686,1.5681,1.5675,1.5675,1.5656,1.5655,1.5653,1.565,1.5646,1.5643,1.5637,1.5631,1.5618,1.5616,1.5618,1.5623,1.5628,1.5625,1.5578,1.5615,1.5614,1.5614,1.5614,1.5614,1.5734,1.5737,1.5726,1.5723,1.5717,1.5711,1.5712,1.5702,1.57,1.5694,1.5684,1.5684,1.5675,1.5666,1.5661,1.5661,1.5653,1.5657,1.5658,1.5659,1.5661,1.5628,1.566,1.566,1.566,1.566,1.566,0,1.577,1.5762,1.5759,1.5751,1.5749,1.5736,1.5729,1.5728,1.5728,1.5721,1.5717,1.5715,1.5713,1.5701,1.5697,1.57,1.5693,1.5699,1.5699,1.5697,1.5668,1.5666,1.5704,1.5704,1.5704,1.5704,1.5704,1.5704,1.5788,1.5791,1.5782,1.5783,1.5775,1.5774,1.5771,1.5766,1.576,1.5758,1.5756,1.5748,1.5739,1.5735,1.5732,1.5729,1.5729,1.5736,1.5731,1.5704,1.57,1.5695,1.5694,1.5736,1.5736,1.576,1.576,1.576]},{"header":{"parameterUnit":"m.s-1","parameterCategory":1,"la1":30.2991,"la2":30.254,"lo1":-89.0895,"lo2":-89.0444,"dy":0.0017,"dx":0.0017,"nx":28,"ny":28,"refTime":"2024-02-26T03:00:00:Z","depth":0,"parameterNumber":3,"parameterNumberName":"V-component_of_WINDS"},"data":[0,0,0,0,0,0,0,0,0,0,0,0,0,0,0,0,0,0,0,0,0,0,0,0,0,0,0,0,0,0,0,0,0,0,0,0,0,0,0,0,0,0,0,0,0,0,0,0,0,0,0,0,0,0,0,0,0,0,4.0011,4.0012,0,4.0155,4.0157,4.0158,4.0192,4.0191,4.019,4.0189,4.0338,4.0343,4.0347,0,0,0,0,0,0,0,0,0,0,0,0,0,3.9767,3.9772,4.001,4.0012,4.0014,4.0155,4.0157,4.0159,4.0192,4.0191,4.0189,4.0188,4.0336,4.0342,4.0348,0,0,0,0,0,0,0,0,0,0,0,0,0,3.9889,3.9773,4.001,4.0047,4.0052,4.0154,4.0157,4.0159,4.0192,4.019,4.0189,4.0188,4.0334,4.0341,4.0349,4.0424,0,0,4.0371,4.0374,0,0,0,0,0,0,0,0,3.9882,3.9897,4.004,4.0045,4.0051,4.0154,4.0126,4.0248,4.0192,4.0139,4.0189,4.0187,4.0278,4.029,4.032,4.0431,4.0438,4.0372,4.0376,4.038,4.0382,0,0,0,0,0,0,0,3.9873,3.9891,4.0068,4.0042,4.0049,4.0058,4.0074,4.0149,4.0215,4.0144,4.0146,4.0163,4.028,4.0313,4.0324,4.044,4.0372,4.0378,4.0383,4.0386,4.0625,4.0627,0,0,0,0,0,0,3.9858,3.9884,4.0063,4.0072,3.9961,4.0064,4.0081,4.0122,4.0214,4.0227,4.0164,4.0164,4.0301,4.0315,4.0329,4.0427,4.0379,4.0386,4.0391,4.0623,4.0625,4.0627,0,0,0,0,0,0,3.9852,3.9873,4.0057,3.9979,4.0003,4.007,4.0115,4.0126,4.0158,4.023,4.0242,4.0185,4.0301,4.0319,4.0401,4.0433,4.039,4.0396,4.0621,4.0624,4.0626,4.0621,0,0,0,0,0,0,3.9845,3.9871,3.9899,3.9979,4.0007,4.0126,4.0117,4.013,4.0171,4.0172,4.0253,4.0265,4.0301,4.039,4.0409,4.0442,4.0402,4.0618,4.0622,4.0625,4.0618,4.0623,4.0627,0,0,0,0,0,3.9837,3.9892,3.9901,3.9922,4.0044,4.0127,4.0143,4.0183,4.0173,4.0203,4.025,4.0262,4.0426,4.0398,4.0419,4.0455,4.0616,4.0621,4.0625,4.0617,4.0622,4.0627,0,0,0,0,0,0,3.9813,3.9903,3.9914,3.9996,4.0054,4.0133,4.0172,4.0188,4.025,4.0248,4.0296,4.0314,4.0394,4.0433,4.0401,4.0536,4.0521,4.053,4.0507,4.0513,4.0517,4.0507,4.0408,0,0,0,0,0,3.9818,3.9877,3.9952,4.0018,4.0046,4.0104,4.0142,4.0168,4.023,4.0255,4.0307,4.0368,4.0433,4.0475,4.0539,4.0624,4.0644,4.0659,4.0664,4.0667,4.0674,4.0726,4.0734,4.0642,4.0642,4.0642,0,0,3.9828,3.9884,3.9918,4.0015,4.0063,4.0125,4.0124,4.0189,4.0237,4.0265,4.0347,4.0387,4.0458,4.0543,4.0583,4.0578,4.0704,4.0672,4.0674,4.068,4.0731,4.074,4.0748,4.0645,4.0644,4.0644,0,0,3.9878,3.9925,3.9987,4.0035,4.0108,4.0147,4.0161,4.0239,4.0267,4.035,4.0373,4.0431,4.0542,4.0592,4.0632,4.0706,4.0721,4.0725,4.0748,4.0797,4.0805,4.0811,4.084,4.085,4.0732,4.0732,4.0732,0,3.9881,3.9975,4.0016,4.0081,4.0125,4.0153,4.0218,4.0263,4.0353,4.0383,4.0376,4.0518,4.0567,4.0666,4.0684,4.0715,4.0735,4.0716,4.08,4.0807,4.0814,4.0842,4.0853,4.0732,4.0732,4.0732,4.0732,0,3.9977,4.0042,4.0083,4.017,4.0218,4.0282,4.0335,4.0379,4.0401,4.0441,4.0527,4.0588,4.0666,4.0691,4.0713,4.0795,4.0789,4.079,4.0777,4.0823,4.085,4.0861,4.0733,4.0732,4.0732,4.0732,0,0,4.0015,4.0126,4.0141,4.0183,4.0267,4.0319,4.0385,4.0462,4.05,4.0562,4.0621,4.0716,4.0719,4.0764,4.0793,4.0836,4.0894,4.0832,4.0835,4.0844,4.099,4.099,4.1002,4.0904,4.0906,4.0908,4.0985,0,4.0077,4.0197,4.0238,4.0338,4.04,4.043,4.0489,4.0548,4.0588,4.0648,4.0692,4.0759,4.0756,4.0785,4.0829,4.0877,4.0924,4.0872,4.0961,4.0964,4.0944,4.1016,4.1015,4.1085,4.0996,4.0998,4.0999,0,4.0165,4.023,4.0336,4.0416,4.0444,4.0495,4.0571,4.0627,4.0696,4.0722,4.0775,4.0801,4.0874,4.0856,4.0959,4.0923,4.0962,4.0992,4.0996,4.1007,4.0985,4.1031,4.1108,4.112,4.1016,4.1014,4.1013,0,4.0186,4.0299,4.0378,4.0413,4.0507,4.0543,4.0584,4.0651,4.0696,4.0763,4.0793,4.0867,4.0908,4.0965,4.1011,4.0993,4.1111,4.1096,4.1137,4.1136,4.1161,4.1159,4.1248,4.1183,4.1183,4.1182,4.1182,0,4.0252,4.0316,4.0389,4.0438,4.0512,4.056,4.0632,4.0675,4.0736,4.0795,4.0825,4.088,4.0937,4.1,4.1037,4.1118,4.1136,4.116,4.117,4.1159,4.1156,4.1186,4.1183,4.1185,4.1185,4.1184,4.1184,0,4.0287,4.0338,4.0427,4.051,4.0532,4.0584,4.0655,4.0705,4.0747,4.0822,4.0842,4.0908,4.0985,4.1036,4.1133,4.1158,4.1248,4.1255,4.1225,4.123,4.1268,4.1265,4.1381,4.14,4.132,4.1321,4.1321,0,4.0327,4.0378,4.0466,4.0508,4.055,4.0617,4.0663,4.0713,4.076,4.0844,4.0885,4.0963,4.1029,4.115,4.1207,4.1282,4.1293,4.1329,4.1304,4.1293,4.1297,4.1294,4.13,4.1333,4.1333,4.1334,4.1334,0,4.0393,4.0416,4.0482,4.0558,4.0612,4.0674,4.0736,4.0769,4.083,4.0882,4.0961,4.1012,4.1113,4.1192,4.1273,4.1317,4.1337,4.1341,4.1355,4.1346,4.1327,4.134,4.1237,4.1339,4.1338,4.1338,4.1338,4.1337,4.0433,4.0481,4.0552,4.0625,4.0677,4.0736,4.0788,4.0837,4.0903,4.099,4.1015,4.1098,4.1169,4.128,4.1326,4.1392,4.1389,4.1408,4.1414,4.1418,4.142,4.1315,4.1407,4.1407,4.1407,4.1407,4.1407,0,4.0503,4.055,4.0617,4.0704,4.0763,4.0776,4.0847,4.0895,4.0968,4.1032,4.1097,4.1189,4.1266,4.133,4.141,4.1452,4.1463,4.1471,4.147,4.148,4.1416,4.1398,4.1461,4.1461,4.1461,4.1461,4.1461,4.1461,4.0546,4.0628,4.0661,4.0771,4.0819,4.09,4.094,4.0995,4.1047,4.1149,4.1214,4.1255,4.132,4.1406,4.1478,4.1495,4.1524,4.1531,4.155,4.149,4.1484,4.1478,4.1461,4.1536,4.1536,4.1609,4.1609,4.161]}]]